THOR ABLESTAR DEB, 334

Orbit data source: Space-Track

THOR ABLESTAR DEB, 334 is space debris in LEO originally from a launch on Thu, 29 Jun 1961 UTC launched from the Air Force Eastern Test Range (AFETR). Debris objects in space refer to the collection of defunct objects orbiting the Earth. Examples of debris include non-operational satellites, rocket bodies, and fragments generated from explosions, collisions, or faulty payload assembly.

Loading next visibility...
Identifier
334, 1961-015DL
Orbit
LEO
Country
Flag of USUS
Related business
Manufacturer
Unknown
Mission
Spacecraft
Bus & Motor
Unknown
Mass
Unknown
Launch date (UTC)
1961-06-29 (65 years ago)
Launch vehicle
Unknown
Launch site
Air Force Eastern Test Range (AFETR)
Object type
Payload
Rocket body
Debris
Shape & HBR
Unknown shape, 0.1 m
Radar Cross Section
Medium (>0.1 m² and <1 m²)

Expand to show TLE details & history
Last TLE update: 22 hours ago

TLE from 22 hours ago
0 THOR ABLESTAR DEB
1 00334U 61015DL  26163.18430731  .00000004  00000-0  61401-4 0  9998
2 00334  66.9224 196.1735 0072660 107.3887 253.5156 13.91746384295366
Epoch: 2026-06-12T04:25Z
TLE epoch observation values (Epoch: 2026-06-12T04:25:24.151Z)
Latitude
Longitude
-130.69452°
Altitude
940.011 km
Speed
7.374 km/s
True Right ascension
13h 04m 41s
True Declination
0° 00' 00"
Sunlit
Object was in daylight at epoch
Visualization orbit readout
Latitude
Unknown
Longitude
Unknown
Altitude
Unknown
Speed
Unknown
Apparent Right ascension
Unknown
Apparent Declination
Unknown
Sunlit
N/A
Visualization observer readout
Local Sidereal Time
13:05:09
Azimuth
Unknown
Elevation
Unknown
Doppler factor
Unknown
Orbital elements
Apogee altitude
973.931 km
Perigee altitude
867.861 km
Semi-major axis
7,299.033 km
Eccentricity
0.00727
Inclination
66.9224°
RAAN
196.1735°
Arg. of periapsis
107.3887°
True anomaly
252.71928°
Mean anomaly
253.5156°
Eccentric anomaly
253.11723°
Mean motion
3.48053 °/min
Orbital period
103.43 mins
BSTAR
0.000061401
Loading maneuver chart data...
Computing Atmospheric mass density...

Documentation

Showing up to 5 results
|